Wetterdaten Herbst 2013

Datum T max T min Regen
01.09.2013 17.4 °C 12.4 °C 5 mm
02.09.2013 21.4 °C 11.9 °C 0 mm
03.09.2013 24.1 °C 12.6 °C 0 mm
04.09.2013 26.6 °C 11.9 °C 0 mm
05.09.2013 28.3 °C 14 °C 0 mm
06.09.2013 28.4 °C 14.7 °C 2.9 mm
07.09.2013 24.2 °C 16.8 °C 1.4 mm
08.09.2013 21.1 °C 15 °C 7.9 mm
09.09.2013 17.9 °C 12.2 °C 8.3 mm
10.09.2013 15.6 °C 10.7 °C 2.5 mm
11.09.2013 14.4 °C 9.6 °C 7.2 mm
12.09.2013 13.6 °C 10.6 °C 24.8 mm
13.09.2013 17 °C 11.3 °C 4 mm
14.09.2013 19 °C 11.2 °C 2.9 mm
15.09.2013 17.7 °C 13.7 °C 5.8 mm
16.09.2013 15.3 °C 9.6 °C 4 mm
17.09.2013 13.1 °C 7.9 °C 2.9 mm
18.09.2013 16.9 °C 9.4 °C 15.5 mm
19.09.2013 14.3 °C 7.8 °C 0.4 mm
20.09.2013 16.5 °C 11.4 °C 0.4 mm
21.09.2013 17.3 °C 9.6 °C 0 mm
22.09.2013 18.7 °C 7 °C 0 mm
23.09.2013 19.4 °C 11 °C 0 mm
24.09.2013 19.6 °C 8.7 °C 0 mm
25.09.2013 21.5 °C 9.2 °C 0 mm
26.09.2013 19.6 °C 14.4 °C 1.4 mm
27.09.2013 18.1 °C 11.2 °C 0 mm
28.09.2013 19.9 °C 10 °C 0 mm
29.09.2013 17.1 °C 10.6 °C 0 mm
30.09.2013 12.6 °C 8.4 °C 0 mm
01.10.2013 16.2 °C 6 °C 0 mm
02.10.2013 15.2 °C 4.2 °C 0 mm
03.10.2013 16.6 °C 3.8 °C 0 mm
04.10.2013 16.4 °C 9.7 °C 0 mm
05.10.2013 15.4 °C 10.9 °C 28.8 mm
06.10.2013 11.4 °C 9.3 °C 3.2 mm
07.10.2013 15 °C 8.8 °C 0 mm
08.10.2013 15 °C 8.7 °C 0 mm
09.10.2013 15.3 °C 11.5 °C 0 mm
10.10.2013 12.5 °C 6.7 °C 18.4 mm
11.10.2013 9 °C 4.4 °C 1.8 mm
12.10.2013 6.4 °C 1.1 °C 0 mm
13.10.2013 11 °C 3.9 °C 0.7 mm
14.10.2013 14.6 °C 5.2 °C 1.4 mm
15.10.2013 12.6 °C 8.8 °C 18.7 mm
16.10.2013 12.9 °C 8 °C 0.4 mm
17.10.2013 15.6 °C 9.6 °C 0.4 mm
18.10.2013 15 °C 8.6 °C 0.7 mm
19.10.2013 20 °C 5.4 °C 0 mm
20.10.2013 16.2 °C 13.3 °C 9 mm
21.10.2013 18.2 °C 14.2 °C 0 mm
22.10.2013 21.6 °C 12.6 °C 0 mm
23.10.2013 16.4 °C 11.3 °C 2.2 mm
24.10.2013 17.8 °C 9.6 °C 0 mm
25.10.2013 19.6 °C 7.7 °C 0 mm
26.10.2013 22.5 °C 11.8 °C 0 mm
27.10.2013 19.9 °C 12.1 °C 5.8 mm
28.10.2013 23.5 °C 13.5 °C 0 mm
29.10.2013 14.8 °C 8.1 °C 0 mm
30.10.2013 12.5 °C 2.5 °C 0 mm
31.10.2013 12.4 °C 0.3 °C 0 mm
01.11.2013 9.9 °C 3.1 °C 0 mm
02.11.2013 16.1 °C 8.1 °C 1.8 mm
03.11.2013 13.2 °C 7 °C 4.7 mm
04.11.2013 12.8 °C 6.9 °C 0.7 mm
05.11.2013 10.2 °C 1.9 °C 0.7 mm
06.11.2013 12.9 °C 7.6 °C 8.6 mm
07.11.2013 16.5 °C 12.8 °C 0 mm
08.11.2013 14.1 °C 11.3 °C 6.8 mm
09.11.2013 11.3 °C 6.1 °C 0 mm
10.11.2013 8.4 °C 4.2 °C 16.6 mm
11.11.2013 7.5 °C 0.4 °C 0 mm
12.11.2013 5.2 °C -2.6 °C 0 mm
13.11.2013 5.6 °C 3 °C 2.5 mm
14.11.2013 5.3 °C 3.1 °C 0.4 mm
15.11.2013 5.3 °C 2.7 °C 0 mm
16.11.2013 6.4 °C 3.9 °C 0 mm
17.11.2013 6.9 °C 5.3 °C 0 mm
18.11.2013 8.6 °C 1.7 °C 0 mm
19.11.2013 3.9 °C 0.3 °C 8.6 mm
20.11.2013 4.5 °C 2.7 °C 6.1 mm
21.11.2013 4.4 °C 2.5 °C 0 mm
22.11.2013 4.3 °C 2.5 °C 2.2 mm
23.11.2013 5.8 °C 3.6 °C 0 mm
24.11.2013 5.8 °C 2 °C 0 mm
25.11.2013 2.7 °C -2.2 °C 0 mm
26.11.2013 1 °C -3.3 °C 1.1 mm
27.11.2013 -1.2 °C -5.3 °C 0 mm
28.11.2013 1.1 °C -3.3 °C 0.7 mm
29.11.2013 4.7 °C 1.1 °C 5 mm
30.11.2013 5.2 °C 0.3 °C 3.2 mm
*) Messwert für diesen Zeitpunkt noch nicht verfügbar
 Hinweis zur Datenqualität
∅ Temperatur

10.5 °C

Abweichung vom Mittel

+0.2 °C

Niederschlag

258.5 mm

Abweichung vom Mittel

169 %

28.4 °C

Lufttemperatur
06.09.2013

1029 hPa

Luftdruck
27.11.2013

40 km/h

Windböen
29.09.2013

258.48007 mm

Niederschlag
 

-5.3 °C

Lufttemperatur
27.11.2013

-4.5 °C

Bodentemperatur 5cm
01.01.1970

988 hPa

Luftdruck
04.11.2013
 Hinweis zur Datenqualität